This is the latest recevied weather packets stored in our database for station/object DG1ROH. If no packets are shown the sender has not sent any weather packets the latest 1 day(s).
| Time | Temp. | Humidity | Pressure | Rain* | Wind** | Luminosity | Snow |
|---|---|---|---|---|---|---|---|
| 1778049358 | 10° C | 94% | 1004.3 hPa | 0.76 mm | - | 35 W/m² | - |
| 1778049118 | 10° C | 94% | 1004.4 hPa | 0.76 mm | - | 40 W/m² | - |
| 1778048998 | 10° C | 94% | 1004.4 hPa | 0.76 mm | - | 47 W/m² | - |
| 1778048161 | 10° C | 94% | 1004.4 hPa | 1.02 mm | - | 35 W/m² | - |
| 1778048034 | 10° C | 94% | 1004.4 hPa | 1.02 mm | - | 33 W/m² | - |
| 1778047917 | 10° C | 94% | 1004.4 hPa | 0.76 mm | - | 33 W/m² | - |
| 1778047792 | 10° C | 94% | 1004.4 hPa | 1.02 mm | - | 32 W/m² | - |
| 1778047672 | 10° C | 94% | 1004.4 hPa | 1.02 mm | - | 30 W/m² | - |
| 1778047552 | 10° C | 94% | 1004.4 hPa | 1.02 mm | - | 28 W/m² | - |
| 1778047312 | 10° C | 94% | 1004.5 hPa | 1.02 mm | - | 30 W/m² | - |
| 1778047192 | 10° C | 94% | 1004.4 hPa | 1.02 mm | - | 26 W/m² | - |
| 1778046952 | 10° C | 94% | 1004.4 hPa | 1.27 mm | - | 26 W/m² | - |
| 1778046832 | 10° C | 94% | 1004.4 hPa | 1.27 mm | - | 25 W/m² | - |
| 1778046712 | 10° C | 94% | 1004.5 hPa | 1.27 mm | - | 26 W/m² | - |
| 1778046593 | 10° C | 94% | 1004.4 hPa | 1.52 mm | - | 25 W/m² | - |
| 1778046350 | 10° C | 94% | 1004.5 hPa | 1.52 mm | - | 26 W/m² | - |
| 1778046231 | 10° C | 94% | 1004.4 hPa | 1.52 mm | - | 26 W/m² | - |
| 1778046109 | 10° C | 94% | 1004.5 hPa | 1.52 mm | - | 23 W/m² | - |
| 1778045988 | 10° C | 94% | 1004.4 hPa | 1.52 mm | - | 25 W/m² | - |
| 1778045868 | 10° C | 94% | 1004.4 hPa | 1.78 mm | - | 23 W/m² | - |
| 1778045748 | 10° C | 94% | 1004.4 hPa | 1.78 mm | - | 21 W/m² | - |
| 1778045626 | 10° C | 94% | 1004.5 hPa | 2.03 mm | - | 23 W/m² | - |
| 1778045506 | 10° C | 94% | 1004.5 hPa | 2.03 mm | - | 21 W/m² | - |
| 1778045384 | 10° C | 94% | 1004.5 hPa | 2.29 mm | - | 21 W/m² | - |
| 1778045262 | 10° C | 94% | 1004.5 hPa | 2.29 mm | - | 21 W/m² | - |
* Rain latest hour (hover to see other rain measurements)
** Current wind speed in m/s (hover to see current wind gust speed)